This demonstration page uses our WeatherBlox Daily Observations layout. Learn more.

Left ArrowRight Arrow

34.02893, -84.19858

Hourly Observations for July 18, 2021

Temp ( °F °C ) Dew Point ( °F °C ) Humidity (%) Winds ( mph kmh ) Pressure ( in mb ) Visibility ( mi km ) Precip ( " mm )
12:53 am 00:53 Clear 72 22.2 68 20 87 87 NW 5 7 30.11 1020 10 16 0.00 0.00
1:53 am 01:53 Clear 72 22.2 68 20 87 87 Calm 30.11 1020 10 16 0.00 0.00
2:53 am 02:53 Clear 71 21.7 69 20.6 94 94 Calm 30.10 1019 10 16 0.00 0.00
3:53 am 03:53 Clear 72 22.2 70 21.1 94 94 Calm 30.10 1019 10 16 0.00 0.00
4:53 am 04:53 Clear 72 22.2 70 21.1 94 94 Calm 30.11 1020 10 16 0.00 0.00
5:53 am 05:53 Mostly Clear 72 22.2 69 20.6 91 91 N 3 6 30.12 1020 10 16 0.00 0.00
6:53 am 06:53 Mostly Sunny 72 22.2 68 20 87 87 N 3 6 30.13 1020 10 16 0.00 0.00
7:53 am 07:53 Cloudy 72 22.2 69 20.6 91 91 Calm 30.15 1021 10 16 0.01 0.25
8:53 am 08:53 Cloudy 72 22.2 70 21.1 94 94 Calm 30.16 1021 10 16 0.00 0.00
9:53 am 09:53 Cloudy 73 22.8 70 21.1 90 90 S 5 7 30.16 1021 10 16 0.00 0.00
10:53 am 10:53 Sunny 76 24.4 69 20.6 79 79 SW 6 9 30.16 1021 10 16 0.00 0.00
11:53 am 11:53 Mostly Cloudy 77 25 69 20.6 77 77 WNW 3 6 30.16 1021 10 16 0.00 0.00
12:53 pm 12:53 Sunny 79 26.1 69 20.6 72 72 SW 7 11 30.14 1021 10 16 0.00 0.00
1:53 pm 13:53 Partly Cloudy 81 27.2 69 20.6 67 67 S 7 11 30.12 1020 10 16 0.00 0.00
2:53 pm 14:53 Mostly Cloudy 82 27.8 69 20.6 65 65 S 6 9 30.09 1019 10 16 0.00 0.00
3:53 pm 15:53 Cloudy 81 27.2 70 21.1 69 69 S 6 9 30.06 1018 10 16 0.00 0.00
4:53 pm 16:53 Cloudy with Light Rain 80 26.7 72 22.2 76 76 W 10 17 30.05 1018 9 14 0.01 0.25
5:53 pm 17:53 Mostly Cloudy 82 27.8 72 22.2 72 72 VRB 5 7 30.05 1018 10 16 0.00 0.00
6:53 pm 18:53 Mostly Cloudy 79 26.1 68 20 69 69 SW 7 11 30.05 1018 10 16 0.00 0.00
7:53 pm 19:53 Mostly Sunny 77 25 69 20.6 77 77 SSW 5 7 30.05 1018 10 16 0.00 0.00
8:19 pm 20:19 Partly Cloudy with Nearby Thunderstorms 78 25.6 69 20.6 74 74 WSW 7 11 30.05 1018 10 16 0.00 0.00
8:53 pm 20:53 Cloudy with Nearby Thunderstorms 72 22.2 69 20.6 91 91 NW 8 13 30.08 1019 9 14 0.01 0.25
9:16 pm 21:16 Cloudy with Light Rain 71 21.7 69 20.6 94 94 SW 5 7 30.08 1019 4 6 0.04 1.02
9:53 pm 21:53 Partly Cloudy 71 21.7 70 21.1 96 96 Calm 30.06 1018 10 16 0.06 1.52
10:53 pm 22:53 Cloudy 71 21.7 70 21.1 96 96 SSW 3 6 30.07 1018 10 16 0.00 0.00
11:53 pm 23:53 Cloudy with Light Rain 72 22.2 71 21.7 97 97 SSW 5 7 30.07 1018 10 16 0.00 0.00

Powered by AerisWeather